Leonardtown, MD

11:10 AM EST on December 10, 2019 (GMT -0500)
Leonardtown

Weather History for K2W6 - November, 2019

Change the Weather History Date:

Thursday, November 14, 2019

  Actual Average (KNHK) Record (KNHK)
Temperature  
Mean Temperature 42 °F -  
Max Temperature 44 °F 58 °F 76 °F (1985)
Min Temperature 39 °F 40 °F 24 °F (2013)
Degree Days  
Heating Degree Days 22    
Moisture  
Dew Point 30 °F    
Average Humidity 63    
Maximum Humidity 87    
Minimum Humidity 49    
Precipitation  
Precipitation 0.00 in - - ()
Sea Level Pressure  
Sea Level Pressure 30.35 in    
Wind  
Wind Speed 4 mph ()    
Max Wind Speed 12 mph    
Max Gust Speed 20 mph    
Averages and records for this station are not official NWS values.
T = Trace of Precipitation, MM = Missing Value Source: Averaged Metar Reports

Daily Weather History Graph

Daily Weather History Graph

Search for Another Location

Airport or City:

Astronomy

Nov. 14, 2019 Rise Set
Actual Time 6:46 AM EST 4:54 PM EST
Civil Twilight 6:18 AM EST 5:22 PM EST
Nautical Twilight 5:46 AM EST 5:54 PM EST
Astronomical Twilight 5:14 AM EST 6:25 PM EST
Moon 6:39 PM EST (11/14) 8:38 AM EST (11/14)
Length of Visible Light 11h 04m
Length of Day
10h 08m
Waning Gibbous, 95% of the Moon is Illuminated
Nov 14
Waning Gibbous
Nov 19
Last Quarter
Nov 26
New
Dec 4
First Quarter
Dec 12
Full

Hourly Weather History & Observations

Time (EST) Temp. Windchill Dew Point Humidity Pressure Visibility Wind Dir Wind Speed Gust Speed Precip Events Conditions
10:43 AM 41.0 °F 35.8 °F 23.0 °F 49% 30.43 in - SSE 8.1 mph - N/A   Clear
11:03 AM 42.8 °F 37.5 °F 26.6 °F 53% 30.42 in - SE 9.2 mph - N/A   Clear
11:23 AM 41.0 °F 36.4 °F 26.6 °F 57% 30.42 in - SSW 6.9 mph - N/A   Clear
11:43 AM 42.8 °F 40.1 °F 26.6 °F 53% 30.40 in - SSE 4.6 mph - N/A   Clear
12:03 PM 42.8 °F 38.0 °F 26.6 °F 53% 30.39 in - SSW 8.1 mph - N/A   Clear
12:23 PM 42.8 °F 38.6 °F 26.6 °F 53% 30.38 in - SSW 6.9 mph - N/A   Clear
12:43 PM 44.6 °F 40.7 °F 26.6 °F 49% 30.37 in - South 6.9 mph 19.6 mph N/A   Clear
1:23 PM 44.6 °F 40.2 °F 28.4 °F 53% 30.35 in - South 8.1 mph - N/A   Clear
1:43 PM 44.6 °F 38.8 °F 28.4 °F 53% 30.34 in - SW 11.5 mph - N/A   Clear
2:03 PM 44.6 °F 42.2 °F 28.4 °F 53% 30.34 in - South 4.6 mph - N/A   Clear
2:23 PM 42.8 °F 40.1 °F 28.4 °F 57% 30.34 in - South 4.6 mph - N/A   Scattered Clouds
2:43 PM 42.8 °F 39.3 °F 30.2 °F 61% 30.34 in - SSW 5.8 mph - N/A   Mostly Cloudy
4:03 PM 42.8 °F - 30.2 °F 61% 30.34 in - Calm Calm - N/A   Overcast
4:23 PM 42.8 °F - 30.2 °F 61% 30.34 in - Calm Calm - N/A   Overcast
4:43 PM 42.8 °F - 30.2 °F 61% 30.34 in - Calm Calm - N/A   Overcast
5:03 PM 41.0 °F - 32.0 °F 70% 30.34 in - Calm Calm - N/A   Overcast
5:36 PM 41.0 °F - 32.0 °F 70% 30.34 in - Calm Calm - N/A   Overcast
5:56 PM 41.0 °F - 32.0 °F 70% 30.35 in - Calm Calm - N/A   Overcast
6:36 PM 41.0 °F - 32.0 °F 70% 30.35 in - Calm Calm - N/A   Overcast
6:56 PM 41.0 °F - 32.0 °F 70% 30.34 in - Calm Calm - N/A   Overcast
7:16 PM 41.0 °F - 32.0 °F 70% 30.34 in - Calm Calm - N/A   Overcast
7:36 PM 42.8 °F - 32.0 °F 66% 30.34 in - Calm Calm - N/A   Overcast
7:56 PM 42.8 °F - 32.0 °F 66% 30.34 in - Calm Calm - N/A   Overcast
8:16 PM 42.8 °F - 32.0 °F 66% 30.33 in - Calm Calm - N/A   Overcast
8:36 PM 42.8 °F - 32.0 °F 66% 30.34 in - Calm Calm - N/A   Overcast
8:56 PM 42.8 °F - 32.0 °F 66% 30.34 in - Calm Calm - N/A   Overcast
9:16 PM 42.8 °F - 32.0 °F 66% 30.34 in - Calm Calm - N/A   Overcast
9:36 PM 42.8 °F 41.1 °F 32.0 °F 66% 30.34 in - South 3.5 mph - N/A   Overcast
9:56 PM 42.8 °F - 32.0 °F 66% 30.33 in - Calm Calm - N/A   Overcast
10:16 PM 42.8 °F - 32.0 °F 66% 30.32 in - Calm Calm - N/A   Overcast
10:36 PM 42.8 °F - 32.0 °F 66% 30.33 in - Calm Calm - N/A   Overcast
10:56 PM 42.8 °F - 32.0 °F 66% 30.32 in - Calm Calm - N/A   Overcast
11:16 PM 42.8 °F - 32.0 °F 66% 30.32 in - Calm Calm - N/A   Overcast
11:36 PM 41.0 °F 37.1 °F 33.8 °F 76% 30.32 in - West 5.8 mph - N/A   Overcast
11:56 PM 39.2 °F - 35.6 °F 87% 30.31 in - Calm Calm - N/A   Unknown